Starlink 32862

operational
NORAD ID: 62864 Int'l Des: 2025-022 Owner: SPXS Country: US Constellation: starlink
LEOCIRCULAR

About Starlink 32862

Description loading...

Live Position

Loading 3D Globe...

Upcoming Passes

Altitude History

Altitude vs Time

uPlot chart will show altitude changes over time

Two-Line Element Set

1 62864U 25022L 25259.27787158 .00015725 00000-0 54184-3 0 9990
2 62864 53.1568 219.9740 0001777 56.2799 303.8371 15.30204628 35192
Epoch: Sep 16, 2025 • Age: 19 hours

Current Status

Altitude 480.4 km
Velocity 7.63 km/s
Sub-Earth Point -19.71°S, 175.93°W
Launch Date Feb 2, 2025
Age 0.6 years
Type internet

Technical Details

Classification Payload
Mass 730.00 kg
Dry Mass 700.00 kg
Total Mass 730.00 kg
Length 0.30 m
Diameter 4.10 m
Span 29.00 m
Shape Box + pan
Manufacturer SPXS
Bus Type Starlink V2M
Phase Status In Orbit
Owner/State SPXS/US

Large Constellations

Loading constellations...